When you browse on this site, cookies collect data to enhance your experience and personalize the content and advertising you see.
Visit our Privacy Policy to learn more. By continuing to use the site, you agree to this use of cookies and data.
  • In Schweiz
  • Länderverzeichnis
  • Für 7 Tage
  • Wassertemperatur
  • Wetterkarte
  • Widgets
  • user-avatar
    Anmelden

    Stündliche Wetter Wavre

    Heute, 31 Mai, Sonntag

    Zeit Temperatur Niederschläge Wind Luftdruck Luftfeuchtigkeit
    00:00 +12°C° 0 mm 3 m/S 760 mmHg 64%
    01:00 +11°C° 0 mm 3 m/S 760 mmHg 67%
    02:00 +12°C° 0 mm 2 m/S 760 mmHg 70%
    03:00 +10°C° 0 mm 2 m/S 760 mmHg 73%
    04:00 +12°C° 0 mm 2 m/S 760 mmHg 71%
    05:00 +12°C° 0 mm 3 m/S 760 mmHg 70%
    06:00 +13°C° 0 mm 3 m/S 760 mmHg 69%
    07:00 +15°C° 0 mm 4 m/S 760 mmHg 64%
    08:00 +17°C° 0 mm 4 m/S 761 mmHg 58%
    09:00 +19°C° 0 mm 5 m/S 761 mmHg 53%
    10:00 +19°C° 0 mm 5 m/S 760 mmHg 50%
    11:00 +19°C° 0 mm 6 m/S 760 mmHg 47%
    12:00 +20°C° 0 mm 6 m/S 760 mmHg 44%
    13:00 +20°C° 0 mm 6 m/S 760 mmHg 45%
    14:00 +21°C° 0 mm 5 m/S 760 mmHg 45%
    15:00 +21°C° 0 mm 5 m/S 760 mmHg 46%
    16:00 +20°C° 0 mm 5 m/S 760 mmHg 51%
    17:00 +19°C° 0 mm 4 m/S 760 mmHg 56%
    18:00 +19°C° 0 mm 4 m/S 760 mmHg 61%
    19:00 +17°C° 0 mm 4 m/S 760 mmHg 64%
    20:00 +15°C° 0 mm 4 m/S 760 mmHg 67%
    21:00 +13°C° 0 mm 4 m/S 760 mmHg 70%
    22:00 +13°C° 0 mm 4 m/S 760 mmHg 73%
    23:00 +12°C° 0 mm 3 m/S 761 mmHg 75%

    Morgen, 1 Juni, Montag

    Zeit Temperatur Niederschläge Wind Luftdruck Luftfeuchtigkeit
    00:00 +11°C° 0 mm 3 m/S 761 mmHg 78%
    01:00 +11°C° 0 mm 3 m/S 761 mmHg 79%
    02:00 +11°C° 0 mm 3 m/S 760 mmHg 81%
    03:00 +10°C° 0 mm 3 m/S 760 mmHg 83%
    04:00 +11°C° 0 mm 3 m/S 760 mmHg 80%
    05:00 +13°C° 0 mm 4 m/S 760 mmHg 77%
    06:00 +14°C° 0 mm 4 m/S 761 mmHg 74%
    07:00 +17°C° 0 mm 4 m/S 760 mmHg 70%
    08:00 +17°C° 0 mm 5 m/S 760 mmHg 66%
    09:00 +20°C° 0 mm 5 m/S 760 mmHg 61%
    10:00 +21°C° 0 mm 5 m/S 760 mmHg 58%
    11:00 +22°C° 0 mm 5 m/S 760 mmHg 55%
    12:00 +25°C° 0 mm 5 m/S 760 mmHg 52%
    13:00 +25°C° 0 mm 5 m/S 759 mmHg 51%
    14:00 +25°C° 0 mm 4 m/S 759 mmHg 50%
    15:00 +26°C° 0 mm 4 m/S 759 mmHg 49%
    16:00 +25°C° 0 mm 4 m/S 759 mmHg 53%
    17:00 +23°C° 0 mm 4 m/S 759 mmHg 57%
    18:00 +22°C° 0 mm 4 m/S 758 mmHg 61%
    19:00 +21°C° 0 mm 4 m/S 759 mmHg 65%
    20:00 +19°C° 0 mm 4 m/S 759 mmHg 69%
    21:00 +18°C° 0 mm 4 m/S 759 mmHg 73%
    22:00 +17°C° 0 mm 3 m/S 759 mmHg 75%
    23:00 +16°C° 0 mm 3 m/S 759 mmHg 78%

    übermorgen, 2 Juni, Dienstag

    Zeit Temperatur Niederschläge Wind Luftdruck Luftfeuchtigkeit
    00:00 +15°C° 0 mm 2 m/S 759 mmHg 80%
    01:00 +15°C° 0 mm 2 m/S 759 mmHg 78%
    02:00 +15°C° 0 mm 2 m/S 758 mmHg 76%
    03:00 +14°C° 0 mm 2 m/S 758 mmHg 74%
    04:00 +15°C° 0 mm 2 m/S 758 mmHg 74%
    05:00 +16°C° 0 mm 1 m/S 758 mmHg 73%
    06:00 +18°C° 0 mm 1 m/S 758 mmHg 72%
    07:00 +20°C° 0 mm 1 m/S 758 mmHg 67%
    08:00 +21°C° 0 mm 2 m/S 758 mmHg 61%
    09:00 +23°C° 0 mm 2 m/S 757 mmHg 56%
    10:00 +24°C° 0 mm 2 m/S 757 mmHg 52%
    11:00 +25°C° 0 mm 2 m/S 757 mmHg 48%
    12:00 +26°C° 0 mm 2 m/S 756 mmHg 44%
    13:00 +27°C° 0 mm 1 m/S 756 mmHg 43%
    14:00 +27°C° 0 mm 1 m/S 755 mmHg 42%
    15:00 +27°C° 0 mm 1 m/S 755 mmHg 42%
    16:00 +27°C° 0 mm 1 m/S 755 mmHg 47%
    17:00 +26°C° 0 mm 1 m/S 754 mmHg 52%
    18:00 +25°C° 0 mm 1 m/S 754 mmHg 57%
    19:00 +23°C° 0 mm 1 m/S 754 mmHg 60%
    20:00 +21°C° 0 mm 1 m/S 754 mmHg 63%
    21:00 +19°C° 0 mm 1 m/S 754 mmHg 66%
    22:00 +19°C° 0 mm 1 m/S 753 mmHg 66%
    23:00 +19°C° 0 mm 1 m/S 753 mmHg 66%

    3 Juni, Mittwoch

    Zeit Temperatur Niederschläge Wind Luftdruck Luftfeuchtigkeit
    00:00 +19°C° 0 mm 1 m/S 753 mmHg 66%
    01:00 +19°C° 0 mm 1 m/S 752 mmHg 69%
    02:00 +18°C° 0 mm 1 m/S 752 mmHg 71%
    03:00 +18°C° 0 mm 1 m/S 751 mmHg 74%
    04:00 +18°C° 0.3 mm 1 m/S 751 mmHg 75%
    05:00 +19°C° 0.3 mm 1 m/S 751 mmHg 77%
    06:00 +19°C° 0.3 mm 1 m/S 750 mmHg 79%
    07:00 +20°C° 0.3 mm 1 m/S 750 mmHg 74%
    08:00 +22°C° 0.3 mm 1 m/S 750 mmHg 69%
    09:00 +23°C° 0.3 mm 1 m/S 750 mmHg 64%
    10:00 +24°C° 0.4 mm 1 m/S 750 mmHg 59%
    11:00 +25°C° 0.4 mm 1 m/S 750 mmHg 53%
    12:00 +26°C° 0.4 mm 1 m/S 749 mmHg 48%
    13:00 +26°C° 0.1 mm 1 m/S 749 mmHg 48%
    14:00 +26°C° 0.1 mm 1 m/S 749 mmHg 48%
    15:00 +26°C° 0.1 mm 1 m/S 748 mmHg 47%
    16:00 +25°C° 0.2 mm 2 m/S 748 mmHg 55%
    17:00 +24°C° 0.2 mm 2 m/S 748 mmHg 62%
    18:00 +21°C° 0.2 mm 3 m/S 748 mmHg 69%
    19:00 +20°C° 0.1 mm 3 m/S 748 mmHg 76%
    20:00 +18°C° 0.1 mm 3 m/S 748 mmHg 84%
    21:00 +16°C° 0.1 mm 3 m/S 748 mmHg 91%
    22:00 +16°C° 0 mm 3 m/S 748 mmHg 92%
    23:00 +14°C° 0 mm 3 m/S 748 mmHg 93%

    4 Juni, Donnerstag

    Zeit Temperatur Niederschläge Wind Luftdruck Luftfeuchtigkeit
    00:00 +14°C° 0 mm 3 m/S 748 mmHg 94%
    01:00 +13°C° 0 mm 3 m/S 748 mmHg 93%
    02:00 +13°C° 0 mm 3 m/S 748 mmHg 92%
    03:00 +12°C° 0 mm 3 m/S 748 mmHg 92%
    04:00 +13°C° 0 mm 3 m/S 748 mmHg 89%
    05:00 +13°C° 0 mm 3 m/S 748 mmHg 86%
    06:00 +13°C° 0 mm 4 m/S 749 mmHg 83%
    07:00 +14°C° 0 mm 4 m/S 749 mmHg 77%
    08:00 +17°C° 0 mm 4 m/S 749 mmHg 72%
    09:00 +18°C° 0 mm 4 m/S 750 mmHg 66%
    10:00 +18°C° 0 mm 4 m/S 750 mmHg 63%
    11:00 +19°C° 0 mm 4 m/S 750 mmHg 59%
    12:00 +20°C° 0 mm 5 m/S 750 mmHg 56%
    13:00 +19°C° 0 mm 5 m/S 750 mmHg 57%
    14:00 +19°C° 0 mm 5 m/S 750 mmHg 58%
    15:00 +19°C° 0 mm 5 m/S 750 mmHg 58%
    16:00 +17°C° 0 mm 5 m/S 750 mmHg 60%
    17:00 +17°C° 0 mm 4 m/S 750 mmHg 62%
    18:00 +15°C° 0 mm 4 m/S 751 mmHg 65%
    19:00 +13°C° 0 mm 3 m/S 751 mmHg 68%
    20:00 +12°C° 0 mm 3 m/S 751 mmHg 72%
    21:00 +10°C° 0 mm 2 m/S 752 mmHg 76%
    22:00 +11°C° 0 mm 1 m/S 752 mmHg 79%
    23:00 +10°C° 0 mm 1 m/S 751 mmHg 81%

    5 Juni, Freitag

    Zeit Temperatur Niederschläge Wind Luftdruck Luftfeuchtigkeit
    00:00 +8°C° 0 mm 0 m/S 751 mmHg 83%
    01:00 +9°C° 0 mm 1 m/S 751 mmHg 83%
    02:00 +9°C° 0 mm 1 m/S 751 mmHg 83%
    03:00 +9°C° 0 mm 1 m/S 750 mmHg 83%
    04:00 +9°C° 0 mm 2 m/S 750 mmHg 79%
    05:00 +10°C° 0 mm 2 m/S 750 mmHg 75%
    06:00 +12°C° 0 mm 2 m/S 750 mmHg 71%
    07:00 +13°C° 0 mm 3 m/S 750 mmHg 65%
    08:00 +16°C° 0 mm 3 m/S 750 mmHg 59%
    09:00 +18°C° 0 mm 4 m/S 749 mmHg 53%
    10:00 +19°C° 0 mm 4 m/S 749 mmHg 52%
    11:00 +20°C° 0 mm 4 m/S 749 mmHg 52%
    12:00 +21°C° 0 mm 5 m/S 749 mmHg 52%
    13:00 +21°C° 0 mm 5 m/S 748 mmHg 53%
    14:00 +21°C° 0 mm 5 m/S 748 mmHg 54%
    15:00 +21°C° 0 mm 5 m/S 748 mmHg 55%
    16:00 +21°C° 0 mm 5 m/S 748 mmHg 58%
    17:00 +20°C° 0 mm 4 m/S 748 mmHg 60%
    18:00 +19°C° 0 mm 4 m/S 748 mmHg 62%
    19:00 +18°C° 0 mm 3 m/S 749 mmHg 67%
    20:00 +16°C° 0 mm 2 m/S 749 mmHg 72%
    21:00 +15°C° 0 mm 2 m/S 750 mmHg 77%
    22:00 +15°C° 0 mm 1 m/S 750 mmHg 79%
    23:00 +14°C° 0 mm 1 m/S 750 mmHg 81%
    Mehr zeigen